Regional Weather Roundup
Issued by NWS

Home | Current Version | Previous Version | Graphics & Text | Print | Product List | Glossary On
Versions: 1 2 3 4 5 6 7 8 9 10 11 12 13 14 15 16 17 18 19 20 21 22 23 24 25 26 27 28 29 30 31 32 33 34 35 36 37 38 39 40 41 42 43 44 45 46 47 48 49 50
000
ASUS43 KLSX 292107
RWRMO

WEATHER SUMMARY FOR MISSOURI
NATIONAL WEATHER SERVICE SPRINGFIELD MO
300 PM CST THU JAN 29 2015

NOTE: "FAIR" INDICATES FEW OR NO CLOUDS BELOW 12,000 FEET WITH NO
       SIGNIFICANT WEATHER AND/OR OBSTRUCTIONS TO VISIBILITY.
       CURRENT SKY AND/OR WEATHER CONDITIONS ARE NOT AVAILABLE FOR
       CHILLICOTHE AND FARMINGTON.

MOZ001>031-035>038-043-044-053-054-292200-
...NORTHERN AND WESTERN MISSOURI...

CITY           SKY/WX    TMP DP  RH WIND       PRES   REMARKS
KANSAS CTY INT PTSUNNY   41  27  57 NW15G24   30.38R
KANSAS C DTWN  PTSUNNY   44  26  49 N14G22    30.38R
LEE`S SUMMIT   PTSUNNY   41  26  55 N17       30.37R
ST JOSEPH      CLOUDY    41  25  53 N22G32    30.41R
CHILLICOTHE      N/A     40  27  59 NW13G25   30.36R
KIRKSVILLE     CLOUDY    37  27  67 NW16G23   30.29R WCI  28

$$
MOZ066>068-077>081-088>096-101>105-292200-
...SOUTHWEST MISSOURI...

CITY           SKY/WX    TMP DP  RH WIND       PRES   REMARKS
SPRINGFIELD    CLOUDY    42  28  57 NW24G30   30.32R
JOPLIN         CLOUDY    47  28  47 NW14G23   30.38R

$$
MOZ032>034-039>042-045>050-055>058-069>072-292200-
...CENTRAL MISSOURI...

CITY           SKY/WX    TMP DP  RH WIND       PRES   REMARKS
COLUMBIA       CLOUDY    40  30  67 NW22G31   30.28R WCI  30
JEFFERSON CITY CLOUDY    42  30  62 NW13G28   30.30R
ROLLA          CLOUDY    39  28  64 NW17      30.25R WCI  30
SEDALIA        CLOUDY    43  29  57 NW24G32   30.34R
WHITEMAN AFB   PTSUNNY   42  28  57 NW20G26   30.33R
WARRENSBURG    PTSUNNY   43  28  56 NW15G26   30.35R
OSAGE BEACH    CLOUDY    41  27  56 NW7G20    30.31R

$$
MOZ051-052-059>065-292200-
...EAST CENTRAL MISSOURI...

CITY           SKY/WX    TMP DP  RH WIND       PRES   REMARKS
ST LOUIS INTL  CLOUDY    42  31  64 W16G23    30.21R
SPIRIT OF STL  CLOUDY    42  30  62 W14       30.22R
ST CHARLES     CLOUDY    41  32  70 W16       30.21R

$$
MOZ072>076-082>087-097>100-106>115-292200-
...SOUTH CENTRAL AND SOUTHEAST MISSOURI...

CITY           SKY/WX    TMP DP  RH WIND       PRES   REMARKS
CAPE GIRARDEAU CLOUDY    43  32  65 NW12      30.21R
FARMINGTON     CLOUDY    39  28  65 NW13G21   30.25R
POPLAR BLUFF   CLOUDY    44  33  65 N21G26    30.22R
WEST PLAINS    CLOUDY    40  29  64 NW17G28   30.27R

$$


USA.gov is the U.S. government's official web portal to all federal, state and local government web resources and services.